Weather History for Gallup, NM

Change the Weather History Date:

Wednesday, April 24, 2013

  Actual Average Record
Temperature  
Mean Temperature 42 °F -  
Max Temperature 70 °F 64 °F 82 °F (2012)
Min Temperature 16 °F 27 °F 16 °F (2013)
Degree Days  
Heating Degree Days 22    
Moisture  
Dew Point 2 °F    
Average Humidity 18    
Maximum Humidity 38    
Minimum Humidity 9    
Precipitation  
Precipitation 0.00 in - - ()
Sea Level Pressure  
Sea Level Pressure 30.00 in    
Wind  
Wind Speed 5 mph (NW)    
Max Wind Speed 24 mph    
Max Gust Speed 30 mph    
Visibility 10 miles    
Events      
Averages and records for this station are not official NWS values.
T = Trace of Precipitation, MM = Missing Value Source: NWS Daily Summary

Daily Weather History Graph

Daily Weather History Graph

Search for Another Location

Airport:

Trip Planner

Search our weather history database for the weather conditions in past years. The results will help you decide how hot, cold, wet, or windy it might be!

Date:

Astronomy

Apr. 24, 2013 Rise Set
Actual Time 6:31 AM MDT 7:55 PM MDT
Civil Twilight 6:04 AM MDT 8:22 PM MDT
Nautical Twilight 5:32 AM MDT 8:55 PM MDT
Astronomical Twilight 4:58 AM MDT 9:28 PM MDT
Moon 7:03 PM MDT (4/24) 5:34 AM MDT (4/24)
Length of Visible Light 14h 18m
Length of Day
13h 24m
Waxing Gibbous, 98% of the Moon is Illuminated
Apr 24
Waxing Gibbous
Apr 25
Full
May 2
Last Quarter
May 9
New
May 17
First Quarter

Hourly Weather History & Observations

Time (MDT) Temp. Windchill Dew Point Humidity Pressure Visibility Wind Dir Wind Speed Gust Speed Precip Events Conditions
12:53 AM 24.1 °F - -7.1 °F 25% 30.07 in 10.0 mi Calm Calm - N/A   Clear
1:53 AM 23.0 °F - -7.1 °F 27% 30.07 in 10.0 mi Calm Calm - N/A   Clear
2:53 AM 21.0 °F 14.6 °F -9.0 °F 26% 30.04 in 10.0 mi NE 4.6 mph - N/A   Clear
4:53 AM 19.0 °F - -6.0 °F 33% 30.06 in 10.0 mi Calm Calm - N/A   Clear
5:53 AM 16.0 °F - -7.1 °F 36% 30.09 in 10.0 mi Calm Calm - N/A   Clear
6:53 AM 16.0 °F - -6.0 °F 38% 30.12 in 10.0 mi Calm Calm - N/A   Clear
7:53 AM 28.0 °F - -2.9 °F 26% 30.09 in 10.0 mi Calm Calm - N/A   Clear
8:53 AM 37.0 °F - -2.0 °F 19% 30.07 in 10.0 mi Calm Calm - N/A   Clear
9:53 AM 46.9 °F - -0.9 °F 14% 30.04 in 10.0 mi Calm Calm - N/A   Clear
10:53 AM 54.0 °F - 3.9 °F 13% 30.06 in 10.0 mi WNW 4.6 mph - N/A   Clear
11:53 AM 62.1 °F - 10.0 °F 13% 30.00 in 10.0 mi West 8.1 mph - N/A   Clear
12:53 PM 66.9 °F - 10.0 °F 11% 29.94 in 10.0 mi West 21.9 mph 29.9 mph N/A   Clear
1:53 PM 69.1 °F - 12.0 °F 11% 29.93 in 10.0 mi West 24.2 mph 29.9 mph N/A   Clear
2:53 PM 69.1 °F - 7.0 °F 9% 29.94 in 10.0 mi West 23.0 mph 29.9 mph N/A   Clear
3:53 PM 69.1 °F - 8.1 °F 9% 29.93 in 10.0 mi WSW 19.6 mph 29.9 mph N/A   Clear
4:53 PM 69.1 °F - 12.9 °F 11% 29.94 in 10.0 mi West 17.3 mph 24.2 mph N/A   Partly Cloudy
5:53 PM 64.9 °F - 14.0 °F 14% 29.99 in 10.0 mi West 11.5 mph 21.9 mph N/A   Clear
6:53 PM 64.0 °F - 14.0 °F 14% 30.00 in 10.0 mi West 9.2 mph - N/A   Clear
7:53 PM 57.9 °F - 1.0 °F 10% 29.98 in 10.0 mi NE 9.2 mph - N/A   Clear
8:53 PM 53.1 °F - -0.9 °F 11% 29.97 in 10.0 mi ENE 5.8 mph - N/A   Partly Cloudy
9:53 PM 51.1 °F - -0.0 °F 12% 29.94 in 10.0 mi NE 6.9 mph - N/A   Partly Cloudy
10:53 PM 50.0 °F - -0.9 °F 12% 29.90 in 10.0 mi NNE 4.6 mph - N/A   Clear
11:53 PM 46.9 °F - -0.0 °F 14% 29.85 in 10.0 mi Calm Calm - N/A   Clear